User: anonymous   Login
Location: Unspecified
(0.0000°N, 0.0000°E)
Time: 01:34:19
(UTC+00:00)
Language:

USA 169 - Orbit

View from above orbital plane
View from above orbital plane
View from above satellite
View from above satellite

Ground track
Ground track

The orbit data is extracted from the following two-line orbital elements,

1 27711U 03012A   17090.95418681 0.00000000  00000-0  00000-0 0    06
2 27711   7.2606  53.0583 0005720 194.2907 165.7052  1.00270000    07
Epoch (UTC): 31 March 2017 22:54:01
Eccentricity: 0.0005720
inclination: 7.2606°
perigee height: 35762 km
apogee height: 35811 km
right ascension of ascending node: 53.0583°
argument of perigee: 194.2907°
revolutions per day: 1.00270000
mean anomaly at epoch: 165.7052°
orbit number at epoch: 0

The dashed part of the orbit path shows where the satellite is in the earth's shadow,  

DLR